Weather History for KMEM - March, 2013

Change the Weather History Date:

Monday, March 4, 2013

  Actual Average Record
Temperature  
Mean Temperature 54 °F 50 °F  
Max Temperature 69 °F 60 °F 81 °F (1963)
Min Temperature 39 °F 41 °F 16 °F (1893)
Degree Days  
Heating Degree Days 11 15  
Month to date heating degree days 102 61  
Since 1 July heating degree days 2300 2511  
Cooling Degree Days 0 0  
Month to date cooling degree days 0 0  
Year to date cooling degree days 9 3  
Growing Degree Days 5 (Base 50)    
Moisture  
Dew Point 32 °F    
Average Humidity 39    
Maximum Humidity 56    
Minimum Humidity 22    
Precipitation  
Precipitation 0.00 in 0.16 in 2.37 in (1964)
Month to date precipitation 0.01 0.62  
Year to date precipitation 13.58 8.99  
Snow  
Snow 0.00 in 0.00 in 2.60 in (1917)
Month to date snowfall T 0.1  
Since 1 July snowfall 0.9 3.5  
Snow Depth 0.00 in    
Sea Level Pressure  
Sea Level Pressure 29.88 in    
Wind  
Wind Speed 14 mph (South)    
Max Wind Speed 27 mph    
Max Gust Speed 41 mph    
Visibility 10 miles    
Events      
T = Trace of Precipitation, MM = Missing Value Source: NWS Daily Summary

Daily Weather History Graph

Daily Weather History Graph

Search for Another Location

Airport or City:

Trip Planner

Search our weather history database for the weather conditions in past years. The results will help you decide how hot, cold, wet, or windy it might be!

Date:

Astronomy

Mar. 04, 2013 Rise Set
Actual Time 6:25 AM CST 5:58 PM CST
Civil Twilight 5:59 AM CST 6:23 PM CST
Nautical Twilight 5:30 AM CST 6:53 PM CST
Astronomical Twilight 5:01 AM CST 7:22 PM CST
Moon 12:25 AM CST (3/4) 10:49 AM CST (3/4)
Length of Visible Light 12h 24m
Length of Day
11h 33m
Waning Gibbous, 52% of the Moon is Illuminated
Mar 4
Waning Gibbous
Mar 4
Last Quarter
Mar 11
New
Mar 19
First Quarter
Mar 27
Full

Hourly Weather History & Observations

Time (CST) Temp. Windchill Dew Point Humidity Pressure Visibility Wind Dir Wind Speed Gust Speed Precip Events Conditions
12:54 AM 39.0 °F 34.0 °F 24.1 °F 55% 30.06 in 10.0 mi SSE 6.9 mph - N/A   Mostly Cloudy
1:54 AM 39.9 °F 34.5 °F 24.1 °F 53% 30.04 in 10.0 mi SSE 8.1 mph - N/A   Overcast
2:54 AM 41.0 °F 34.3 °F 21.9 °F 47% 30.01 in 10.0 mi SSE 11.5 mph - N/A   Mostly Cloudy
3:54 AM 41.0 °F 35.8 °F 21.9 °F 47% 30.01 in 10.0 mi SSE 8.1 mph - N/A   Overcast
4:54 AM 41.0 °F 35.8 °F 21.9 °F 47% 29.99 in 10.0 mi SSE 8.1 mph - N/A   Overcast
5:54 AM 41.0 °F 33.9 °F 23.0 °F 49% 29.97 in 10.0 mi SSE 12.7 mph 19.6 mph N/A   Mostly Cloudy
6:54 AM 41.0 °F 34.3 °F 24.1 °F 51% 29.98 in 10.0 mi SSE 11.5 mph - N/A   Mostly Cloudy
7:54 AM 44.1 °F 38.6 °F 25.0 °F 47% 29.99 in 10.0 mi SSE 10.4 mph - N/A   Mostly Cloudy
8:54 AM 50.0 °F - 28.0 °F 43% 29.98 in 10.0 mi SSE 13.8 mph - N/A   Mostly Cloudy
9:54 AM 55.0 °F - 30.9 °F 40% 29.94 in 10.0 mi South 20.7 mph 26.5 mph N/A   Mostly Cloudy
10:54 AM 60.1 °F - 30.9 °F 33% 29.90 in 10.0 mi South 21.9 mph 26.5 mph N/A   Mostly Cloudy
11:54 AM 64.9 °F - 30.9 °F 28% 29.86 in 10.0 mi South 20.7 mph 26.5 mph N/A   Mostly Cloudy
12:54 PM 68.0 °F - 28.9 °F 23% 29.82 in 10.0 mi SSW 26.5 mph 38.0 mph N/A   Overcast
1:54 PM 66.0 °F - 30.9 °F 27% 29.80 in 10.0 mi South 20.7 mph 28.8 mph N/A   Overcast
2:54 PM 64.9 °F - 34.0 °F 32% 29.78 in 10.0 mi South 13.8 mph 24.2 mph N/A   Overcast
3:54 PM 64.9 °F - 35.1 °F 33% 29.78 in 10.0 mi SSW 15.0 mph 26.5 mph N/A   Overcast
4:54 PM 64.9 °F - 37.0 °F 36% 29.78 in 10.0 mi SSW 12.7 mph 20.7 mph N/A   Overcast
5:54 PM 64.0 °F - 37.9 °F 38% 29.77 in 10.0 mi South 11.5 mph - N/A   Overcast
6:54 PM 64.9 °F - 37.9 °F 37% 29.77 in 10.0 mi SSE 12.7 mph - N/A   Overcast
7:54 PM 64.0 °F - 37.9 °F 38% 29.78 in 10.0 mi South 8.1 mph - N/A   Overcast
8:54 PM 63.0 °F - 39.9 °F 43% 29.78 in 10.0 mi South 10.4 mph - N/A   Overcast
9:54 PM 62.1 °F - 44.1 °F 52% 29.78 in 10.0 mi South 12.7 mph - N/A   Mostly Cloudy
10:54 PM 63.0 °F - 46.9 °F 56% 29.77 in 10.0 mi South 19.6 mph 31.1 mph N/A   Scattered Clouds
11:54 PM 63.0 °F - 48.9 °F 60% 29.76 in 10.0 mi South 18.4 mph 29.9 mph N/A   Scattered Clouds